Zurück zum Katalog

CZ-6A DEB

AktivSSO
NORAD 54449·DEBRIS·🇨🇳 China

Gestartet Nov 11, 2022 von Taiyuan Satellite Launch Center

Loading…

Nächste Überflüge (nächste 24 Stunden)

TLE

AktuellSource: Space-Track

Epoche: Sep 14, 2026, 09:30 UTC

1 54449U 22151FZ  26257.39597060  .00000163  00000-0  14671-3 0  9990
2 54449  98.9902 230.3603 0131943 190.7215 169.1127 13.93260253194856

Verfolge CZ-6A DEB in Echtzeit mit AllMySat

Download on the App Store